Time,TemperatureF,DewpointF,PressureIn,WindDirection,WindDirectionDegrees,WindSpeedMPH,WindSpeedGustMPH,Humidity,HourlyPrecipIn,Conditions,Clouds,dailyrainin,SoftwareType,DateUTC
2013-01-04 00:05:00,25.6,22.0,29.70,SW,215,4.0,17.0,85,0.00,,,0.00,weatherlink.com 1.10,2013-01-04 05:05:00,
2013-01-04 00:19:00,27.0,23.0,29.69,SW,224,11.0,17.0,83,0.00,,,0.00,weatherlink.com 1.10,2013-01-04 05:19:00,
2013-01-04 00:34:00,27.4,23.0,29.68,SW,226,6.0,16.0,83,0.00,,,0.00,weatherlink.com 1.10,2013-01-04 05:34:00,
2013-01-04 00:52:00,27.3,23.0,29.67,SSW,207,10.0,15.0,82,0.00,,,0.00,weatherlink.com 1.10,2013-01-04 05:52:00,
2013-01-04 01:05:00,27.5,22.0,29.65,SSW,204,17.0,21.0,81,0.00,,,0.00,weatherlink.com 1.10,2013-01-04 06:05:00,
2013-01-04 01:20:00,27.7,23.0,29.64,SW,215,10.0,21.0,81,0.00,,,0.00,weatherlink.com 1.10,2013-01-04 06:20:00,
2013-01-04 01:35:00,27.8,23.0,29.63,SSW,193,7.0,17.0,82,0.00,,,0.00,weatherlink.com 1.10,2013-01-04 06:35:00,
2013-01-04 01:50:00,28.0,23.0,29.64,SW,224,15.0,16.0,82,0.00,,,0.00,weatherlink.com 1.10,2013-01-04 06:50:00,
2013-01-04 02:05:00,28.3,24.0,29.65,SW,221,1.0,21.0,83,0.00,,,0.00,weatherlink.com 1.10,2013-01-04 07:05:00,
2013-01-04 02:20:00,28.6,24.0,29.65,WNW,298,2.0,17.0,83,0.00,,,0.00,weatherlink.com 1.10,2013-01-04 07:20:00,
2013-01-04 02:35:00,28.7,25.0,29.65,WSW,238,10.0,20.0,84,0.00,,,0.00,weatherlink.com 1.10,2013-01-04 07:35:00,
2013-01-04 02:50:00,29.0,25.0,29.65,SSW,207,7.0,16.0,83,0.00,,,0.00,weatherlink.com 1.10,2013-01-04 07:50:00,
2013-01-04 03:05:00,29.0,24.0,29.65,West,275,3.0,14.0,82,0.00,,,0.00,weatherlink.com 1.10,2013-01-04 08:05:00,
2013-01-04 03:20:00,28.9,24.0,29.65,SW,224,7.0,12.0,82,0.00,,,0.00,weatherlink.com 1.10,2013-01-04 08:20:00,
2013-01-04 03:36:00,28.9,24.0,29.65,WNW,289,9.0,15.0,82,0.00,,,0.00,weatherlink.com 1.10,2013-01-04 08:36:00,
2013-01-04 03:50:00,28.8,23.0,29.65,SSE,148,2.0,16.0,80,0.00,,,0.00,weatherlink.com 1.10,2013-01-04 08:50:00,
2013-01-04 04:05:00,28.5,22.0,29.65,SW,233,9.0,15.0,78,0.00,,,0.00,weatherlink.com 1.10,2013-01-04 09:05:00,
2013-01-04 04:20:00,28.2,22.0,29.65,WSW,237,2.0,16.0,77,0.00,,,0.00,weatherlink.com 1.10,2013-01-04 09:20:00,
2013-01-04 04:35:00,27.8,21.0,29.65,NNW,338,6.0,15.0,75,0.00,,,0.00,weatherlink.com 1.10,2013-01-04 09:35:00,
2013-01-04 04:50:00,27.3,20.0,29.65,NE,37,1.0,17.0,73,0.00,,,0.00,weatherlink.com 1.10,2013-01-04 09:50:00,
2013-01-04 05:05:00,27.1,19.0,29.65,SSW,201,3.0,16.0,72,0.00,,,0.00,weatherlink.com 1.10,2013-01-04 10:05:00,
2013-01-04 05:20:00,26.8,19.0,29.64,WNW,296,5.0,11.0,72,0.00,,,0.00,weatherlink.com 1.10,2013-01-04 10:20:00,
2013-01-04 05:35:00,26.7,18.0,29.64,West,264,2.0,12.0,71,0.00,,,0.00,weatherlink.com 1.10,2013-01-04 10:35:00,
2013-01-04 05:50:00,26.5,18.0,29.64,NW,310,2.0,20.0,70,0.00,,,0.00,weatherlink.com 1.10,2013-01-04 10:50:00,
2013-01-04 06:05:00,26.4,18.0,29.64,SSW,209,4.0,16.0,71,0.00,,,0.00,weatherlink.com 1.10,2013-01-04 11:05:00,
2013-01-04 06:20:00,26.4,18.0,29.64,SSW,201,6.0,14.0,71,0.00,,,0.00,weatherlink.com 1.10,2013-01-04 11:20:00,
2013-01-04 06:35:00,26.3,18.0,29.65,NNW,329,6.0,14.0,71,0.00,,,0.00,weatherlink.com 1.10,2013-01-04 11:35:00,
2013-01-04 06:50:00,26.2,18.0,29.66,NW,311,2.0,11.0,71,0.00,,,0.00,weatherlink.com 1.10,2013-01-04 11:50:00,
2013-01-04 07:05:00,26.1,18.0,29.67,WSW,238,0.0,9.0,71,0.00,,,0.00,weatherlink.com 1.10,2013-01-04 12:05:00,
2013-01-04 07:20:00,26.1,18.0,29.67,WSW,253,1.0,12.0,71,0.00,,,0.00,weatherlink.com 1.10,2013-01-04 12:20:00,
2013-01-04 07:35:00,26.0,18.0,29.67,WNW,298,3.0,10.0,71,0.00,,,0.00,weatherlink.com 1.10,2013-01-04 12:35:00,
2013-01-04 07:50:00,25.9,18.0,29.66,WSW,254,6.0,9.0,71,0.00,,,0.00,weatherlink.com 1.10,2013-01-04 12:50:00,
2013-01-04 08:05:00,26.0,18.0,29.67,West,269,4.0,11.0,71,0.00,,,0.00,weatherlink.com 1.10,2013-01-04 13:05:00,
2013-01-04 08:20:00,26.0,18.0,29.67,WSW,248,8.0,12.0,72,0.00,,,0.00,weatherlink.com 1.10,2013-01-04 13:20:00,
2013-01-04 08:35:00,26.0,18.0,29.67,WNW,290,4.0,12.0,72,0.00,,,0.00,weatherlink.com 1.10,2013-01-04 13:35:00,
2013-01-04 08:50:00,26.1,18.0,29.67,West,267,3.0,11.0,72,0.00,,,0.00,weatherlink.com 1.10,2013-01-04 13:50:00,
2013-01-04 09:05:00,26.4,19.0,29.67,SW,233,2.0,10.0,73,0.00,,,0.00,weatherlink.com 1.10,2013-01-04 14:05:00,
2013-01-04 09:20:00,26.5,19.0,29.68,SW,233,10.0,12.0,73,0.00,,,0.00,weatherlink.com 1.10,2013-01-04 14:20:00,
2013-01-04 09:35:00,26.6,19.0,29.68,SW,221,1.0,11.0,73,0.00,,,0.00,weatherlink.com 1.10,2013-01-04 14:35:00,
2013-01-04 09:50:00,26.8,19.0,29.69,NW,310,6.0,13.0,73,0.00,,,0.00,weatherlink.com 1.10,2013-01-04 14:50:00,
2013-01-04 10:05:00,27.0,19.0,29.69,SW,233,4.0,12.0,73,0.00,,,0.00,weatherlink.com 1.10,2013-01-04 15:05:00,
2013-01-04 10:20:00,27.1,20.0,29.69,SW,221,4.0,12.0,74,0.00,,,0.00,weatherlink.com 1.10,2013-01-04 15:20:00,
2013-01-04 10:35:00,27.2,20.0,29.70,South,186,8.0,10.0,74,0.00,,,0.00,weatherlink.com 1.10,2013-01-04 15:35:00,
2013-01-04 10:50:00,27.2,20.0,29.70,SSE,158,2.0,13.0,74,0.00,,,0.00,weatherlink.com 1.10,2013-01-04 15:50:00,
2013-01-04 11:05:00,27.3,20.0,29.70,SSW,193,6.0,14.0,74,0.00,,,0.00,weatherlink.com 1.10,2013-01-04 16:05:00,
2013-01-04 11:20:00,27.6,20.0,29.70,SW,222,4.0,12.0,74,0.00,,,0.00,weatherlink.com 1.10,2013-01-04 16:20:00,
2013-01-04 11:35:00,27.8,21.0,29.70,SSE,153,3.0,9.0,74,0.00,,,0.00,weatherlink.com 1.10,2013-01-04 16:35:00,
2013-01-04 11:50:00,27.9,21.0,29.70,SSW,204,9.0,13.0,75,0.00,,,0.00,weatherlink.com 1.10,2013-01-04 16:50:00,
2013-01-04 12:05:00,27.9,21.0,29.70,SSW,211,2.0,15.0,75,0.00,,,0.00,weatherlink.com 1.10,2013-01-04 17:05:00,
2013-01-04 12:20:00,28.0,21.0,29.70,SW,214,2.0,13.0,76,0.00,,,0.00,weatherlink.com 1.10,2013-01-04 17:20:00,
2013-01-04 12:35:00,28.1,22.0,29.69,SSW,201,5.0,13.0,77,0.00,,,0.00,weatherlink.com 1.10,2013-01-04 17:35:00,
2013-01-04 12:50:00,28.1,22.0,29.69,SSW,207,9.0,12.0,77,0.00,,,0.00,weatherlink.com 1.10,2013-01-04 17:50:00,
2013-01-04 13:06:00,28.1,22.0,29.69,South,186,4.0,14.0,77,0.00,,,0.00,weatherlink.com 1.10,2013-01-04 18:06:00,
2013-01-04 13:21:00,28.1,22.0,29.69,SE,146,2.0,13.0,77,0.00,,,0.00,weatherlink.com 1.10,2013-01-04 18:21:00,
2013-01-04 13:36:00,28.5,22.0,29.69,West,269,2.0,12.0,77,0.00,,,0.00,weatherlink.com 1.10,2013-01-04 18:36:00,
2013-01-04 13:51:00,29.7,22.0,29.69,SW,222,3.0,12.0,74,0.00,,,0.00,weatherlink.com 1.10,2013-01-04 18:51:00,
2013-01-04 14:06:00,30.5,22.0,29.69,South,170,2.0,9.0,71,0.00,,,0.00,weatherlink.com 1.10,2013-01-04 19:06:00,
2013-01-04 14:21:00,30.3,22.0,29.69,West,273,0.0,7.0,71,0.00,,,0.00,weatherlink.com 1.10,2013-01-04 19:21:00,
2013-01-04 14:36:00,30.3,22.0,29.68,West,280,1.0,6.0,71,0.00,,,0.00,weatherlink.com 1.10,2013-01-04 19:36:00,
2013-01-04 14:51:00,30.6,23.0,29.69,SW,219,0.0,5.0,72,0.00,,,0.00,weatherlink.com 1.10,2013-01-04 19:51:00,
2013-01-04 15:21:00,30.9,23.0,29.68,SE,142,6.0,13.0,73,0.00,,,0.00,weatherlink.com 1.10,2013-01-04 20:21:00,
2013-01-04 15:36:00,30.6,23.0,29.69,South,169,5.0,11.0,74,0.00,,,0.00,weatherlink.com 1.10,2013-01-04 20:36:00,
2013-01-04 15:51:00,30.0,23.0,29.69,SE,146,6.0,16.0,75,0.00,,,0.00,weatherlink.com 1.10,2013-01-04 20:51:00,
2013-01-04 16:06:00,29.5,23.0,29.70,WSW,241,5.0,11.0,76,0.00,,,0.00,weatherlink.com 1.10,2013-01-04 21:06:00,
2013-01-04 16:21:00,29.0,23.0,29.71,SSW,205,5.0,9.0,77,0.00,,,0.00,weatherlink.com 1.10,2013-01-04 21:21:00,
2013-01-04 16:36:00,28.9,23.0,29.72,WSW,254,1.0,7.0,77,0.00,,,0.00,weatherlink.com 1.10,2013-01-04 21:36:00,
2013-01-04 16:51:00,29.1,22.0,29.73,SSW,204,3.0,13.0,76,0.00,,,0.00,weatherlink.com 1.10,2013-01-04 21:51:00,
2013-01-04 17:06:00,29.0,22.0,29.73,West,263,4.0,10.0,75,0.00,,,0.00,weatherlink.com 1.10,2013-01-04 22:06:00,
2013-01-04 17:21:00,29.0,22.0,29.72,SSW,203,7.0,13.0,75,0.00,,,0.00,weatherlink.com 1.10,2013-01-04 22:21:00,
2013-01-04 17:36:00,28.9,22.0,29.73,SW,219,5.0,11.0,75,0.00,,,0.00,weatherlink.com 1.10,2013-01-04 22:36:00,
2013-01-04 17:51:00,28.8,22.0,29.73,SW,222,5.0,9.0,75,0.00,,,0.00,weatherlink.com 1.10,2013-01-04 22:51:00,
2013-01-04 18:06:00,28.9,22.0,29.73,SE,146,3.0,13.0,74,0.00,,,0.00,weatherlink.com 1.10,2013-01-04 23:06:00,
2013-01-04 18:21:00,29.0,22.0,29.73,SSW,209,12.0,12.0,74,0.00,,,0.00,weatherlink.com 1.10,2013-01-04 23:21:00,
2013-01-04 18:36:00,29.4,23.0,29.76,West,271,3.0,12.0,76,0.00,,,0.00,weatherlink.com 1.10,2013-01-04 23:36:00,
2013-01-04 18:51:00,28.4,25.0,29.78,WSW,243,6.0,13.0,85,0.00,,,0.00,weatherlink.com 1.10,2013-01-04 23:51:00,
2013-01-04 19:06:00,28.5,25.0,29.79,WNW,299,0.0,8.0,85,0.00,,,0.00,weatherlink.com 1.10,2013-01-05 00:06:00,
2013-01-04 19:21:00,28.7,25.0,29.80,West,263,2.0,6.0,85,0.00,,,0.00,weatherlink.com 1.10,2013-01-05 00:21:00,
2013-01-04 19:36:00,31.0,24.0,29.81,NNW,344,5.0,15.0,75,0.00,,,0.00,weatherlink.com 1.10,2013-01-05 00:36:00,
2013-01-04 19:51:00,31.7,23.0,29.82,NE,49,2.0,19.0,71,0.00,,,0.00,weatherlink.com 1.10,2013-01-05 00:51:00,
2013-01-04 20:06:00,31.8,23.0,29.83,SSE,149,4.0,18.0,70,0.00,,,0.00,weatherlink.com 1.10,2013-01-05 01:06:00,
2013-01-04 20:21:00,31.8,23.0,29.84,NW,304,5.0,15.0,70,0.00,,,0.00,weatherlink.com 1.10,2013-01-05 01:21:00,
2013-01-04 20:36:00,31.7,23.0,29.84,NW,315,5.0,10.0,69,0.00,,,0.00,weatherlink.com 1.10,2013-01-05 01:36:00,
2013-01-04 20:51:00,31.8,23.0,29.85,NW,321,6.0,14.0,69,0.00,,,0.00,weatherlink.com 1.10,2013-01-05 01:51:00,
2013-01-04 21:06:00,32.0,23.0,29.86,WNW,290,3.0,14.0,70,0.00,,,0.00,weatherlink.com 1.10,2013-01-05 02:06:00,
2013-01-04 21:21:00,31.8,23.0,29.86,NNW,327,5.0,10.0,71,0.00,,,0.00,weatherlink.com 1.10,2013-01-05 02:21:00,
2013-01-04 21:36:00,31.7,24.0,29.87,NNE,20,2.0,10.0,72,0.00,,,0.00,weatherlink.com 1.10,2013-01-05 02:36:00,
2013-01-04 21:51:00,31.8,23.0,29.87,WNW,284,2.0,9.0,70,0.00,,,0.00,weatherlink.com 1.10,2013-01-05 02:51:00,
2013-01-04 22:06:00,31.9,23.0,29.88,North,352,2.0,13.0,69,0.00,,,0.00,weatherlink.com 1.10,2013-01-05 03:06:00,
2013-01-04 22:21:00,32.0,23.0,29.88,SW,233,8.0,8.0,69,0.00,,,0.00,weatherlink.com 1.10,2013-01-05 03:21:00,
2013-01-04 22:37:00,32.2,22.0,29.89,WNW,297,6.0,12.0,67,0.00,,,0.00,weatherlink.com 1.10,2013-01-05 03:37:00,
2013-01-04 22:52:00,32.3,23.0,29.90,WNW,299,2.0,9.0,68,0.00,,,0.00,weatherlink.com 1.10,2013-01-05 03:52:00,
2013-01-04 23:07:00,32.0,24.0,29.90,WSW,243,10.0,10.0,71,0.00,,,0.00,weatherlink.com 1.10,2013-01-05 04:07:00,
2013-01-04 23:22:00,32.3,22.0,29.91,West,267,4.0,14.0,65,0.00,,,0.00,weatherlink.com 1.10,2013-01-05 04:22:00,
2013-01-04 23:52:00,32.2,23.0,29.92,NNW,333,0.0,11.0,69,0.00,,,0.00,weatherlink.com 1.10,2013-01-05 04:52:00,